• In Hungary
  • List of Countries
  • For 7 days
  • Water Temperature
  • Satellite Maps
  • Weather Map
  • News
  • Weather Widgets
  • user-avatar
    Login

    Hourly Weather Siensko

    Today, 17 July, Tuesday

    Time Temperature Precipitation Wind Pressure Humidity
    00:00 +17°C° 0 mm 2 mps 732 mmHg 95%
    01:00 +17°C° 0 mm 2 mps 731 mmHg 96%
    02:00 +17°C° 0.1 mm 2 mps 731 mmHg 96%
    03:00 +17°C° 0.1 mm 2 mps 731 mmHg 97%
    04:00 +16°C° 0.1 mm 3 mps 731 mmHg 97%
    05:00 +17°C° 1 mm 3 mps 731 mmHg 96%
    06:00 +17°C° 1 mm 3 mps 731 mmHg 96%
    07:00 +18°C° 1 mm 3 mps 731 mmHg 95%
    08:00 +18°C° 0.8 mm 4 mps 731 mmHg 93%
    09:00 +19°C° 0.8 mm 4 mps 731 mmHg 91%
    10:00 +20°C° 0.8 mm 4 mps 731 mmHg 89%
    11:00 +20°C° 0.7 mm 4 mps 731 mmHg 86%
    12:00 +21°C° 0.7 mm 5 mps 730 mmHg 84%
    13:00 +22°C° 0.7 mm 5 mps 730 mmHg 82%
    14:00 +22°C° 0.9 mm 5 mps 730 mmHg 82%
    15:00 +22°C° 0.9 mm 5 mps 730 mmHg 82%
    16:00 +22°C° 0.9 mm 6 mps 730 mmHg 82%
    17:00 +21°C° 0.7 mm 5 mps 730 mmHg 85%
    18:00 +20°C° 0.7 mm 5 mps 730 mmHg 88%
    19:00 +20°C° 0.7 mm 4 mps 731 mmHg 90%
    20:00 +19°C° 0.2 mm 4 mps 731 mmHg 92%
    21:00 +19°C° 0.2 mm 4 mps 731 mmHg 94%
    22:00 +18°C° 0.2 mm 4 mps 731 mmHg 95%
    23:00 +18°C° 0.1 mm 4 mps 731 mmHg 96%

    Tomorrow, 18 July, Wednesday

    Time Temperature Precipitation Wind Pressure Humidity
    00:00 +18°C° 0.1 mm 4 mps 731 mmHg 96%
    01:00 +18°C° 0.1 mm 4 mps 731 mmHg 96%
    02:00 +18°C° 0.2 mm 4 mps 731 mmHg 96%
    03:00 +18°C° 0.2 mm 4 mps 731 mmHg 96%
    04:00 +18°C° 0.2 mm 4 mps 731 mmHg 96%
    05:00 +17°C° 0.7 mm 5 mps 731 mmHg 96%
    06:00 +17°C° 0.7 mm 5 mps 731 mmHg 95%
    07:00 +19°C° 0.7 mm 5 mps 731 mmHg 95%
    08:00 +19°C° 1.3 mm 5 mps 731 mmHg 94%
    09:00 +19°C° 1.3 mm 5 mps 732 mmHg 93%
    10:00 +20°C° 1.3 mm 5 mps 732 mmHg 92%
    11:00 +20°C° 0.4 mm 6 mps 732 mmHg 90%
    12:00 +21°C° 0.4 mm 6 mps 732 mmHg 89%
    13:00 +21°C° 0.4 mm 6 mps 732 mmHg 87%
    14:00 +21°C° 0.2 mm 6 mps 732 mmHg 87%
    15:00 +21°C° 0.2 mm 5 mps 732 mmHg 87%
    16:00 +21°C° 0.2 mm 5 mps 732 mmHg 88%
    17:00 +21°C° 0.4 mm 5 mps 732 mmHg 89%
    18:00 +21°C° 0.4 mm 5 mps 732 mmHg 90%
    19:00 +21°C° 0.4 mm 4 mps 733 mmHg 92%
    20:00 +20°C° 0.8 mm 4 mps 733 mmHg 93%
    21:00 +20°C° 0.8 mm 5 mps 733 mmHg 94%
    22:00 +20°C° 0.8 mm 5 mps 733 mmHg 95%
    23:00 +19°C° 0.5 mm 5 mps 733 mmHg 95%

    Day after tomorrow, 19 July, Thursday

    Time Temperature Precipitation Wind Pressure Humidity
    00:00 +19°C° 0.5 mm 5 mps 733 mmHg 96%
    01:00 +19°C° 0.5 mm 5 mps 733 mmHg 96%
    02:00 +19°C° 0.3 mm 5 mps 733 mmHg 96%
    03:00 +19°C° 0.3 mm 5 mps 733 mmHg 96%
    04:00 +18°C° 0.3 mm 4 mps 734 mmHg 96%
    05:00 +19°C° 0.2 mm 4 mps 734 mmHg 96%
    06:00 +19°C° 0.2 mm 4 mps 734 mmHg 95%
    07:00 +19°C° 0.2 mm 4 mps 734 mmHg 95%
    08:00 +19°C° 0.4 mm 4 mps 734 mmHg 93%
    09:00 +20°C° 0.4 mm 4 mps 734 mmHg 91%
    10:00 +21°C° 0.4 mm 5 mps 735 mmHg 89%
    11:00 +21°C° 0.4 mm 5 mps 735 mmHg 88%
    12:00 +21°C° 0.4 mm 5 mps 735 mmHg 86%
    13:00 +22°C° 0.4 mm 5 mps 735 mmHg 84%
    14:00 +22°C° 0.5 mm 5 mps 735 mmHg 85%
    15:00 +21°C° 0.5 mm 5 mps 735 mmHg 85%
    16:00 +21°C° 0.5 mm 5 mps 735 mmHg 86%
    17:00 +21°C° 0.2 mm 4 mps 735 mmHg 88%
    18:00 +20°C° 0.2 mm 4 mps 735 mmHg 90%
    19:00 +20°C° 0.2 mm 3 mps 735 mmHg 92%
    20:00 +19°C° 0.1 mm 3 mps 735 mmHg 94%
    21:00 +19°C° 0.1 mm 3 mps 735 mmHg 95%
    22:00 +18°C° 0.1 mm 3 mps 735 mmHg 96%
    23:00 +18°C° 0.1 mm 3 mps 735 mmHg 97%

    20 July, Friday

    Time Temperature Precipitation Wind Pressure Humidity
    00:00 +18°C° 0.1 mm 3 mps 735 mmHg 97%
    01:00 +18°C° 0.1 mm 3 mps 735 mmHg 97%
    02:00 +18°C° 0.1 mm 3 mps 735 mmHg 97%
    03:00 +18°C° 0.1 mm 3 mps 735 mmHg 97%
    04:00 +18°C° 0.1 mm 3 mps 735 mmHg 97%
    05:00 +18°C° 0 mm 3 mps 735 mmHg 95%
    06:00 +19°C° 0 mm 3 mps 735 mmHg 92%
    07:00 +19°C° 0 mm 3 mps 736 mmHg 90%
    08:00 +20°C° 0.1 mm 3 mps 736 mmHg 84%
    09:00 +21°C° 0.1 mm 4 mps 736 mmHg 78%
    10:00 +23°C° 0.1 mm 4 mps 736 mmHg 71%
    11:00 +23°C° 0.3 mm 4 mps 736 mmHg 69%
    12:00 +25°C° 0.3 mm 4 mps 736 mmHg 67%
    13:00 +25°C° 0.3 mm 4 mps 736 mmHg 65%
    14:00 +26°C° 0.1 mm 4 mps 735 mmHg 63%
    15:00 +26°C° 0.1 mm 4 mps 735 mmHg 61%
    16:00 +26°C° 0.1 mm 4 mps 735 mmHg 59%
    17:00 +25°C° 0 mm 4 mps 735 mmHg 64%
    18:00 +24°C° 0 mm 3 mps 735 mmHg 70%
    19:00 +21°C° 0 mm 2 mps 735 mmHg 75%
    20:00 +20°C° 0 mm 2 mps 735 mmHg 78%
    21:00 +19°C° 0 mm 2 mps 735 mmHg 80%
    22:00 +18°C° 0 mm 2 mps 735 mmHg 83%
    23:00 +18°C° 0 mm 2 mps 735 mmHg 83%

    21 July, Saturday

    Time Temperature Precipitation Wind Pressure Humidity
    00:00 +17°C° 0 mm 2 mps 735 mmHg 83%
    01:00 +17°C° 0 mm 2 mps 735 mmHg 83%
    02:00 +16°C° 0 mm 2 mps 735 mmHg 85%
    03:00 +16°C° 0 mm 1 mps 735 mmHg 86%
    04:00 +15°C° 0 mm 1 mps 735 mmHg 88%
    05:00 +18°C° 0 mm 1 mps 735 mmHg 83%
    06:00 +20°C° 0 mm 1 mps 735 mmHg 79%
    07:00 +21°C° 0 mm 1 mps 735 mmHg 74%
    08:00 +23°C° 0 mm 1 mps 735 mmHg 67%
    09:00 +24°C° 0 mm 1 mps 735 mmHg 61%
    10:00 +25°C° 0 mm 1 mps 735 mmHg 54%
    11:00 +26°C° 0 mm 1 mps 734 mmHg 51%
    12:00 +27°C° 0 mm 1 mps 734 mmHg 48%
    13:00 +27°C° 0 mm 1 mps 734 mmHg 45%
    14:00 +27°C° 0 mm 1 mps 734 mmHg 46%
    15:00 +27°C° 0 mm 1 mps 733 mmHg 46%
    16:00 +27°C° 0 mm 1 mps 733 mmHg 47%
    17:00 +25°C° 0 mm 1 mps 733 mmHg 53%
    18:00 +24°C° 0 mm 1 mps 733 mmHg 60%
    19:00 +23°C° 0 mm 1 mps 733 mmHg 67%
    20:00 +21°C° 0 mm 2 mps 732 mmHg 69%
    21:00 +20°C° 0 mm 2 mps 732 mmHg 71%
    22:00 +19°C° 0 mm 2 mps 732 mmHg 74%
    23:00 +19°C° 0.1 mm 2 mps 732 mmHg 75%

    22 July, Sunday

    Time Temperature Precipitation Wind Pressure Humidity
    00:00 +19°C° 0.1 mm 2 mps 732 mmHg 76%
    01:00 +18°C° 0.1 mm 3 mps 732 mmHg 77%
    02:00 +18°C° 0.1 mm 2 mps 732 mmHg 78%
    03:00 +18°C° 0.1 mm 2 mps 731 mmHg 79%
    04:00 +17°C° 0.1 mm 2 mps 731 mmHg 80%
    05:00 +18°C° 0.1 mm 2 mps 731 mmHg 79%
    06:00 +19°C° 0.1 mm 3 mps 731 mmHg 78%
    07:00 +20°C° 0.1 mm 3 mps 731 mmHg 76%
    08:00 +21°C° 0 mm 3 mps 731 mmHg 73%
    09:00 +22°C° 0 mm 4 mps 732 mmHg 70%
    10:00 +23°C° 0 mm 4 mps 732 mmHg 66%
    11:00 +23°C° 0.9 mm 4 mps 732 mmHg 68%
    12:00 +23°C° 0.9 mm 4 mps 732 mmHg 71%
    13:00 +22°C° 0.9 mm 5 mps 732 mmHg 73%
    14:00 +22°C° 1.1 mm 4 mps 732 mmHg 77%
    15:00 +21°C° 1.1 mm 4 mps 732 mmHg 81%
    16:00 +21°C° 1.1 mm 4 mps 732 mmHg 85%
    17:00 +20°C° 1.1 mm 4 mps 732 mmHg 86%
    18:00 +19°C° 1.1 mm 4 mps 732 mmHg 88%
    19:00 +19°C° 1.1 mm 4 mps 733 mmHg 89%
    20:00 +18°C° 0.7 mm 4 mps 733 mmHg 90%
    21:00 +18°C° 0.7 mm 4 mps 733 mmHg 90%
    22:00 +18°C° 0.7 mm 4 mps 734 mmHg 91%
    23:00 +18°C° 0.1 mm 4 mps 734 mmHg 91%
    Show more